Location: Austin
(30.3000°N, 97.7500°W)
Time: 07:33:11
(UTC-05:00)

Cosmos 1833 Rocket - Pass Details

Date: 16 June 2025
Orbit: 832 x 838 km, 71.0° (Epoch: 07 July)

Event Time Altitude Azimuth Distance (km) Brightness Sun altitude
Rises 02:48:53 0° 340° (NNW) 3,383 6.5 -33.2°
Reaches altitude 10° 02:51:20 10° 340° (NNW) 2,445 5.6 -33.0°
Enters shadow 02:54:59 43° 340° (NNW) 1,162 3.6 -32.7°
